| time (UTC) | temp C | wind direction | speed KPH | gust KPH | rain 1hr cm | rain 24hr cm | rain mn cm | humidity % | barometer mb |
| 20260902101503 | 25 | 171 | 1.6 | 3.2 | 0.00 | 0.00 | 0.00 | 78 | 1012.5 |
| 20260902100004 | 25 | 108 | 0.0 | 0.0 | 0.00 | 0.00 | 0.00 | 77 | 1012.4 |
| 20260902094504 | 25 | 108 | 0.0 | 0.0 | 0.00 | 0.00 | 0.00 | 78 | 1012.5 |
| 20260902093009 | 25 | 108 | 0.0 | 1.6 | 0.00 | 0.00 | 0.00 | 77 | 1012.4 |
| 20260902091502 | 25 | 108 | 0.0 | 1.6 | 0.00 | 0.00 | 0.00 | 77 | 1012.5 |
| 20260902090005 | 26 | 108 | 0.0 | 3.2 | 0.00 | 0.00 | 0.00 | 76 | 1012.6 |
| 20260902084505 | 26 | 108 | 0.0 | 3.2 | 0.00 | 0.00 | 0.00 | 76 | 1012.6 |
| 20260902083002 | 26 | 221 | 0.0 | 3.2 | 0.00 | 0.00 | 0.00 | 76 | 1012.6 |
| 20260902081503 | 26 | 221 | 0.0 | 1.6 | 0.00 | 0.00 | 0.00 | 75 | 1012.6 |
| 20260902080004 | 26 | 221 | 0.0 | 1.6 | 0.00 | 0.00 | 0.00 | 74 | 1012.5 |
| 20260902074502 | 26 | 221 | 0.0 | 1.6 | 0.00 | 0.00 | 0.00 | 74 | 1012.6 |
| 20260902073002 | 26 | 221 | 0.0 | 1.6 | 0.00 | 0.00 | 0.00 | 74 | 1012.6 |
| 20260902071503 | 27 | 221 | 0.0 | 4.8 | 0.00 | 0.00 | 0.00 | 72 | 1012.8 |
| 20260902070006 | 27 | 221 | 0.0 | 1.6 | 0.00 | 0.00 | 0.00 | 73 | 1012.7 |
| 20260902064503 | 27 | 221 | 0.0 | 1.6 | 0.00 | 0.00 | 0.00 | 72 | 1012.9 |
| 20260902063002 | 27 | 221 | 0.0 | 6.4 | 0.00 | 0.00 | 0.00 | 72 | 1012.6 |
| 20260902061505 | 27 | 184 | 0.0 | 3.2 | 0.00 | 0.00 | 0.00 | 72 | 1012.7 |
| 20260902060009 | 27 | 184 | 0.0 | 3.2 | 0.00 | 0.00 | 0.00 | 71 | 1012.8 |
| 20260902054505 | 28 | 109 | 0.0 | 3.2 | 0.00 | 0.00 | 0.00 | 71 | 1012.7 |
| 20260902053005 | 28 | 227 | 0.0 | 3.2 | 0.00 | 0.00 | 0.00 | 71 | 1012.7 |
| 20260902051505 | 28 | 115 | 0.0 | 4.8 | 0.00 | 0.00 | 0.00 | 70 | 1012.6 |
| 20260902050012 | 28 | 46 | 0.0 | 3.2 | 0.00 | 0.00 | 0.00 | 69 | 1012.7 |
| 20260902044504 | 29 | 132 | 0.0 | 4.8 | 0.00 | 0.00 | 0.00 | 68 | 1012.7 |
| 20260902043011 | 29 | 122 | 0.0 | 9.7 | 0.00 | 0.00 | 0.00 | 66 | 1012.7 |
| 20260902041504 | 30 | 56 | 1.6 | 11.3 | 0.00 | 0.00 | 0.00 | 65 | 1012.6 |
| 20260902040006 | 29 | 90 | 4.8 | 11.3 | 0.00 | 0.00 | 0.00 | 65 | 1012.6 |
| 20260902034504 | 29 | 75 | 1.6 | 4.8 | 0.00 | 0.00 | 0.00 | 63 | 1012.3 |
| 20260902033004 | 30 | 69 | 0.0 | 6.4 | 0.00 | 0.00 | 0.00 | 62 | 1012.2 |
| 20260902031504 | 30 | 78 | 1.6 | 4.8 | 0.00 | 0.00 | 0.00 | 62 | 1012.1 |
| 20260902030006 | 30 | 79 | 1.6 | 4.8 | 0.00 | 0.00 | 0.00 | 61 | 1011.9 |
| 20260902024504 | 30 | 92 | 1.6 | 3.2 | 0.00 | 0.00 | 0.00 | 60 | 1011.6 |
| 20260902023004 | 30 | 96 | 3.2 | 6.4 | 0.00 | 0.00 | 0.00 | 59 | 1011.3 |
| 20260902021512 | 31 | 101 | 0.0 | 4.8 | 0.00 | 0.00 | 0.00 | 57 | 1011.0 |
| 20260902020006 | 31 | 86 | 1.6 | 4.8 | 0.00 | 0.00 | 0.00 | 56 | 1011.0 |
| 20260902014505 | 32 | 95 | 3.2 | 14.5 | 0.00 | 0.00 | 0.00 | 54 | 1010.7 |
| 20260902013004 | 32 | 103 | 3.2 | 6.4 | 0.00 | 0.00 | 0.00 | 51 | 1010.4 |
| 20260902011504 | 32 | 81 | 1.6 | 3.2 | 0.00 | 0.00 | 0.00 | 50 | 1010.2 |
| 20260902010013 | 32 | 57 | 1.6 | 8.0 | 0.00 | 0.00 | 0.00 | 50 | 1010.2 |
| 20260902004507 | 33 | 93 | 0.0 | 4.8 | 0.00 | 0.00 | 0.00 | 49 | 1010.3 |
| 20260902003004 | 33 | 68 | 1.6 | 4.8 | 0.00 | 0.00 | 0.00 | 48 | 1010.6 |
| 20260902001504 | 34 | 77 | 3.2 | 9.7 | 0.00 | 0.00 | 0.00 | 47 | 1010.4 |
| 20260902000010 | 35 | 116 | 4.8 | 12.9 | 0.00 | 0.00 | 0.00 | 46 | 1010.4 |
| 20260901234504 | 35 | 94 | 4.8 | 14.5 | 0.00 | 0.00 | 0.00 | 45 | 1010.3 |
| 20260901233008 | 36 | 59 | 3.2 | 12.9 | 0.00 | 0.00 | 0.00 | 44 | 1010.3 |
| 20260901231504 | 36 | 93 | 8.0 | 17.7 | 0.00 | 0.00 | 0.00 | 43 | 1010.2 |
| 20260901230006 | 36 | 84 | 3.2 | 14.5 | 0.00 | 0.00 | 0.00 | 42 | 1010.3 |
| 20260901224504 | 35 | 61 | 3.2 | 11.3 | 0.00 | 0.00 | 0.00 | 43 | 1010.2 |
| 20260901223004 | 36 | 47 | 4.8 | 14.5 | 0.00 | 0.00 | 0.00 | 41 | 1010.3 |
| 20260901221504 | 37 | 59 | 6.4 | 14.5 | 0.00 | 0.00 | 0.00 | 40 | 1010.3 |
| 20260901220011 | 37 | 64 | 1.6 | 11.3 | 0.00 | 0.00 | 0.00 | 40 | 1010.4 |
| 20260901214505 | 37 | 111 | 3.2 | 12.9 | 0.00 | 0.00 | 0.00 | 39 | 1010.4 |
| 20260901213003 | 37 | 150 | 3.2 | 12.9 | 0.00 | 0.00 | 0.00 | 39 | 1010.3 |
| 20260901211504 | 37 | 132 | 3.2 | 11.3 | 0.00 | 0.00 | 0.00 | 41 | 1010.6 |
| 20260901210008 | 37 | 92 | 3.2 | 14.5 | 0.00 | 0.00 | 0.00 | 40 | 1010.9 |
| 20260901204503 | 37 | 117 | 3.2 | 11.3 | 0.00 | 0.00 | 0.00 | 41 | 1011.0 |
| 20260901203004 | 36 | 44 | 3.2 | 16.1 | 0.00 | 0.00 | 0.00 | 43 | 1011.4 |
| 20260901201504 | 37 | 270 | 1.6 | 11.3 | 0.00 | 0.00 | 0.00 | 42 | 1011.5 |
| 20260901200007 | 36 | 68 | 4.8 | 12.9 | 0.00 | 0.00 | 0.00 | 44 | 1011.7 |
| 20260901194502 | 35 | 98 | 1.6 | 17.7 | 0.00 | 0.00 | 0.00 | 46 | 1012.0 |
| 20260901193007 | 36 | 47 | 1.6 | 14.5 | 0.00 | 0.00 | 0.00 | 45 | 1012.1 |
| 20260901191504 | 36 | 126 | 8.0 | 16.1 | 0.00 | 0.00 | 0.00 | 43 | 1012.3 |
| 20260901190009 | 36 | 195 | 1.6 | 11.3 | 0.00 | 0.00 | 0.00 | 46 | 1012.6 |
| 20260901184504 | 35 | 47 | 3.2 | 9.7 | 0.00 | 0.00 | 0.00 | 47 | 1012.7 |
| 20260901183003 | 36 | 59 | 3.2 | 11.3 | 0.00 | 0.00 | 0.00 | 46 | 1013.0 |
| 20260901181503 | 35 | 45 | 4.8 | 12.9 | 0.00 | 0.00 | 0.00 | 47 | 1013.3 |
| 20260901180006 | 35 | 111 | 3.2 | 14.5 | 0.00 | 0.00 | 0.00 | 47 | 1013.5 |
| 20260901174504 | 35 | 100 | 6.4 | 14.5 | 0.00 | 0.00 | 0.00 | 49 | 1013.7 |
| 20260901173003 | 33 | 127 | 3.2 | 8.0 | 0.00 | 0.00 | 0.00 | 52 | 1014.0 |
| 20260901171503 | 33 | 55 | 6.4 | 11.3 | 0.00 | 0.00 | 0.00 | 53 | 1014.2 |
| 20260901170004 | 33 | 116 | 3.2 | 14.5 | 0.00 | 0.00 | 0.00 | 54 | 1014.3 |
| 20260901164503 | 33 | 42 | 8.0 | 17.7 | 0.00 | 0.00 | 0.00 | 55 | 1014.4 |
| 20260901163003 | 32 | 31 | 3.2 | 9.7 | 0.00 | 0.00 | 0.00 | 59 | 1014.4 |
| 20260901161504 | 32 | 216 | 1.6 | 11.3 | 0.00 | 0.00 | 0.00 | 59 | 1014.7 |
| 20260901160010 | 31 | 269 | 1.6 | 6.4 | 0.00 | 0.00 | 0.00 | 64 | 1014.7 |
| 20260901154505 | 30 | 230 | 1.6 | 12.9 | 0.00 | 0.00 | 0.00 | 65 | 1014.7 |
| 20260901153004 | 30 | 84 | 0.0 | 11.3 | 0.00 | 0.00 | 0.00 | 68 | 1014.7 |
| 20260901151503 | 29 | 235 | 1.6 | 8.0 | 0.00 | 0.00 | 0.00 | 70 | 1014.6 |
| 20260901150007 | 29 | 247 | 1.6 | 6.4 | 0.00 | 0.00 | 0.00 | 73 | 1014.6 |
| 20260901144502 | 28 | 216 | 3.2 | 9.7 | 0.00 | 0.00 | 0.00 | 76 | 1014.7 |
| 20260901143004 | 28 | 240 | 0.0 | 4.8 | 0.00 | 0.00 | 0.00 | 78 | 1014.9 |
| 20260901141506 | 27 | 240 | 0.0 | 9.7 | 0.00 | 0.00 | 0.00 | 81 | 1014.8 |
| 20260901140004 | 27 | 225 | 0.0 | 6.4 | 0.00 | 0.00 | 0.00 | 83 | 1015.0 |
| 20260901134502 | 26 | 237 | 0.0 | 4.8 | 0.00 | 0.00 | 0.00 | 86 | 1014.7 |
| 20260901133004 | 25 | 237 | 0.0 | 3.2 | 0.00 | 0.00 | 0.00 | 86 | 1014.6 |
| 20260901131502 | 25 | 237 | 0.0 | 1.6 | 0.00 | 0.00 | 0.00 | 88 | 1014.5 |
| 20260901130006 | 24 | 237 | 0.0 | 1.6 | 0.00 | 0.00 | 0.00 | 90 | 1014.5 |
| 20260901124503 | 24 | 237 | 0.0 | 1.6 | 0.00 | 0.00 | 0.00 | 91 | 1014.3 |
| 20260901123005 | 23 | 237 | 0.0 | 0.0 | 0.00 | 0.00 | 0.00 | 90 | 1014.1 |
| 20260901121503 | 23 | 236 | 0.0 | 3.2 | 0.00 | 0.00 | 0.00 | 90 | 1013.9 |
| 20260901120006 | 23 | 236 | 0.0 | 1.6 | 0.00 | 0.00 | 0.00 | 90 | 1013.9 |
| 20260901114503 | 23 | 237 | 0.0 | 0.0 | 0.00 | 0.00 | 0.00 | 90 | 1013.9 |
| 20260901113003 | 24 | 236 | 0.0 | 3.2 | 0.00 | 0.00 | 0.00 | 90 | 1013.8 |
| 20260901111503 | 24 | 236 | 0.0 | 4.8 | 0.00 | 0.00 | 0.00 | 89 | 1013.7 |
| 20260901110005 | 24 | 236 | 1.6 | 4.8 | 0.00 | 0.00 | 0.00 | 89 | 1013.7 |
| 20260901104502 | 24 | 236 | 0.0 | 4.8 | 0.00 | 0.00 | 0.00 | 88 | 1013.6 |
| 20260901103002 | 25 | 228 | 1.6 | 6.4 | 0.00 | 0.00 | 0.00 | 87 | 1013.6 |